DELTA 1 DEB, 7092

Orbit data source: Space-Track

DELTA 1 DEB, 7092 is space debris in SSO originally from a launch on Tue, 06 Nov 1973 UTC launched from the Air Force Western Test Range (AFWTR). Debris objects in space refer to the collection of defunct objects orbiting the Earth. Examples of debris include non-operational satellites, rocket bodies, and fragments generated from explosions, collisions, or faulty payload assembly.

Loading next visibility...
Identifier
7092, 1973-086CL
Orbit
SSO
Country
Flag of USUS
Related business
Manufacturer
Unknown
Mission
Spacecraft
Bus & Motor
Unknown
Mass
Unknown
Launch date (UTC)
1973-11-06 (53 years ago)
Launch vehicle
Unknown
Launch site
Air Force Western Test Range (AFWTR)
Object type
Payload
Rocket body
Debris
Shape & HBR
Unknown shape, 0.1 m
Radar Cross Section
Medium (>0.1 m² and <1 m²)

Expand to show TLE details & history
Last TLE update: 23 hours ago

TLE from 23 hours ago
0 DELTA 1 DEB
1 07092U 73086CL  26262.69812737 -.00000076  00000-0 -52198-4 0  9997
2 07092 101.8248 217.9723 0314069 206.8596 280.1088 13.07059790514721
Epoch: 2026-09-19T16:45Z
TLE epoch observation values (Epoch: 2026-09-19T16:45:18.204Z)
Latitude
54.89339°
Longitude
165.27977°
Altitude
1,208.808 km
Speed
7.271 km/s
True Right ascension
03h 40m 50s
True Declination
54° 44' 28"
Sunlit
Object was in daylight at epoch
Visualization orbit readout
Latitude
Unknown
Longitude
Unknown
Altitude
Unknown
Speed
Unknown
Apparent Right ascension
Unknown
Apparent Declination
Unknown
Sunlit
N/A
Visualization observer readout
Local Sidereal Time
08:48:11
Azimuth
Unknown
Elevation
Unknown
Doppler factor
Unknown
Orbital elements
Apogee altitude
1,471.039 km
Perigee altitude
993.016 km
Semi-major axis
7,610.164 km
Eccentricity
0.03141
Inclination
101.8248°
RAAN
217.9723°
Arg. of periapsis
206.8596°
True anomaly
276.54343°
Mean anomaly
280.1088°
Eccentric anomaly
278.32829°
Mean motion
3.26928 °/min
Orbital period
110.12 mins
BSTAR
-0.000052198
Loading maneuver chart data...
Computing Atmospheric mass density...
Loading historical data...
Loading historical data...
Loading historical data...
Loading historical data...
Loading historical data...
Loading historical data...
Loading historical data...

Documentation

Showing up to 5 results
|